Time,TemperatureF,DewpointF,PressureIn,WindDirection,WindDirectionDegrees,WindSpeedMPH,WindSpeedGustMPH,Humidity,HourlyPrecipIn,Conditions,Clouds,dailyrainin,SoftwareType,DateUTC
2013-02-04 00:00:00,24.0,20.0,-100.00,NW,314,0.0,3.0,89,-99.99,,,-99.99,,2013-02-04 05:00:00,
2013-02-04 00:22:00,24.0,20.0,-100.00,NW,314,0.0,3.0,89,-99.99,,,-99.99,,2013-02-04 05:22:00,
2013-02-04 00:33:00,24.0,20.0,-100.00,NW,314,0.0,3.0,89,-99.99,,,-99.99,,2013-02-04 05:33:00,
2013-02-04 00:42:00,24.0,20.0,-100.00,NW,314,0.0,3.0,89,-99.99,,,-99.99,,2013-02-04 05:42:00,
2013-02-04 00:52:00,24.0,20.0,-100.00,NW,314,0.0,3.0,89,-99.99,,,-99.99,,2013-02-04 05:52:00,
2013-02-04 01:00:00,24.0,21.0,-100.00,WSW,249,2.0,6.0,94,-99.99,,,-99.99,,2013-02-04 06:00:00,
2013-02-04 01:21:00,24.0,21.0,-100.00,WSW,249,2.0,6.0,94,-99.99,,,-99.99,,2013-02-04 06:21:00,
2013-02-04 01:32:00,24.0,21.0,-100.00,WSW,249,2.0,6.0,94,-99.99,,,-99.99,,2013-02-04 06:32:00,
2013-02-04 01:42:00,24.0,21.0,-100.00,WSW,249,2.0,6.0,94,-99.99,,,-99.99,,2013-02-04 06:42:00,
2013-02-04 01:52:00,24.0,21.0,-100.00,WSW,249,2.0,6.0,94,-99.99,,,-99.99,,2013-02-04 06:52:00,
2013-02-04 02:00:00,25.0,15.0,-100.00,WSW,257,9.0,13.0,69,-99.99,,,-99.99,,2013-02-04 07:00:00,
2013-02-04 02:22:00,25.0,15.0,-100.00,WSW,257,9.0,13.0,69,-99.99,,,-99.99,,2013-02-04 07:22:00,
2013-02-04 02:32:00,25.0,15.0,-100.00,WSW,257,9.0,13.0,69,-99.99,,,-99.99,,2013-02-04 07:32:00,
2013-02-04 02:42:00,25.0,15.0,-100.00,WSW,257,9.0,13.0,69,-99.99,,,-99.99,,2013-02-04 07:42:00,
2013-02-04 02:52:00,25.0,15.0,-100.00,WSW,257,9.0,13.0,69,-99.99,,,-99.99,,2013-02-04 07:52:00,
2013-02-04 03:00:00,24.0,13.0,-100.00,East,93,0.0,16.0,64,-99.99,,,-99.99,,2013-02-04 08:00:00,
2013-02-04 03:21:00,24.0,13.0,-100.00,East,93,0.0,16.0,64,-99.99,,,-99.99,,2013-02-04 08:21:00,
2013-02-04 03:32:00,24.0,13.0,-100.00,East,93,0.0,16.0,64,-99.99,,,-99.99,,2013-02-04 08:32:00,
2013-02-04 03:42:00,24.0,13.0,-100.00,East,93,0.0,16.0,64,-99.99,,,-99.99,,2013-02-04 08:42:00,
2013-02-04 03:52:00,24.0,13.0,-100.00,East,93,0.0,16.0,64,-99.99,,,-99.99,,2013-02-04 08:52:00,
2013-02-04 04:00:00,23.0,9.0,-100.00,WSW,257,5.0,16.0,57,-99.99,,,-99.99,,2013-02-04 09:00:00,
2013-02-04 04:32:00,23.0,9.0,-100.00,WSW,257,5.0,16.0,57,-99.99,,,-99.99,,2013-02-04 09:32:00,
2013-02-04 04:42:00,23.0,9.0,-100.00,WSW,257,5.0,16.0,57,-99.99,,,-99.99,,2013-02-04 09:42:00,
2013-02-04 04:52:00,23.0,9.0,-100.00,WSW,257,5.0,16.0,57,-99.99,,,-99.99,,2013-02-04 09:52:00,
2013-02-04 05:00:00,22.0,8.0,-100.00,WNW,286,0.0,19.0,57,-99.99,,,-99.99,,2013-02-04 10:00:00,
2013-02-04 05:22:00,22.0,8.0,-100.00,WNW,286,0.0,19.0,57,-99.99,,,-99.99,,2013-02-04 10:22:00,
2013-02-04 05:32:00,22.0,8.0,-100.00,WNW,286,0.0,19.0,57,-99.99,,,-99.99,,2013-02-04 10:32:00,
2013-02-04 05:42:00,22.0,8.0,-100.00,WNW,286,0.0,19.0,57,-99.99,,,-99.99,,2013-02-04 10:42:00,
2013-02-04 05:52:00,22.0,8.0,-100.00,WNW,286,0.0,19.0,57,-99.99,,,-99.99,,2013-02-04 10:52:00,
2013-02-04 06:00:00,21.0,7.0,-100.00,WNW,301,5.0,19.0,58,-99.99,,,-99.99,,2013-02-04 11:00:00,
2013-02-04 06:22:00,21.0,7.0,-100.00,WNW,301,5.0,19.0,58,-99.99,,,-99.99,,2013-02-04 11:22:00,
2013-02-04 06:33:00,21.0,7.0,-100.00,WNW,301,5.0,19.0,58,-99.99,,,-99.99,,2013-02-04 11:33:00,
2013-02-04 06:42:00,21.0,7.0,-100.00,WNW,301,5.0,19.0,58,-99.99,,,-99.99,,2013-02-04 11:42:00,
2013-02-04 06:52:00,21.0,7.0,-100.00,WNW,301,5.0,19.0,58,-99.99,,,-99.99,,2013-02-04 11:52:00,
2013-02-04 07:00:00,21.0,7.0,-100.00,West,262,3.0,16.0,58,-99.99,,,-99.99,,2013-02-04 12:00:00,
2013-02-04 07:22:00,21.0,7.0,-100.00,West,262,3.0,16.0,58,-99.99,,,-99.99,,2013-02-04 12:22:00,
2013-02-04 07:33:00,21.0,7.0,-100.00,West,262,3.0,16.0,58,-99.99,,,-99.99,,2013-02-04 12:33:00,
2013-02-04 07:42:00,21.0,7.0,-100.00,West,262,3.0,16.0,58,-99.99,,,-99.99,,2013-02-04 12:42:00,
2013-02-04 07:53:00,21.0,7.0,-100.00,West,262,3.0,16.0,58,-99.99,,,-99.99,,2013-02-04 12:53:00,
2013-02-04 08:00:00,22.0,9.0,-100.00,NNW,331,0.0,11.0,60,-99.99,,,-99.99,,2013-02-04 13:00:00,
2013-02-04 08:22:00,22.0,9.0,-100.00,NNW,331,0.0,11.0,60,-99.99,,,-99.99,,2013-02-04 13:22:00,
2013-02-04 08:33:00,22.0,9.0,-100.00,NNW,331,0.0,11.0,60,-99.99,,,-99.99,,2013-02-04 13:33:00,
2013-02-04 08:42:00,22.0,9.0,-100.00,NNW,331,0.0,11.0,60,-99.99,,,-99.99,,2013-02-04 13:42:00,
2013-02-04 08:52:00,22.0,9.0,-100.00,NNW,331,0.0,11.0,60,-99.99,,,-99.99,,2013-02-04 13:52:00,
2013-02-04 09:00:00,25.0,10.0,-100.00,NNW,348,1.0,13.0,56,-99.99,,,-99.99,,2013-02-04 14:00:00,
2013-02-04 09:23:00,25.0,10.0,-100.00,NNW,348,1.0,13.0,56,-99.99,,,-99.99,,2013-02-04 14:23:00,
2013-02-04 09:33:00,25.0,10.0,-100.00,NNW,348,1.0,13.0,56,-99.99,,,-99.99,,2013-02-04 14:33:00,
2013-02-04 09:42:00,25.0,10.0,-100.00,NNW,348,1.0,13.0,56,-99.99,,,-99.99,,2013-02-04 14:42:00,
2013-02-04 09:52:00,25.0,10.0,-100.00,NNW,348,1.0,13.0,56,-99.99,,,-99.99,,2013-02-04 14:52:00,
2013-02-04 10:00:00,27.0,9.0,-100.00,WSW,246,5.0,19.0,46,-99.99,,,-99.99,,2013-02-04 15:00:00,
2013-02-04 10:24:00,27.0,9.0,-100.00,WSW,246,5.0,19.0,46,-99.99,,,-99.99,,2013-02-04 15:24:00,
2013-02-04 10:33:00,27.0,9.0,-100.00,WSW,246,5.0,19.0,46,-99.99,,,-99.99,,2013-02-04 15:33:00,
2013-02-04 10:43:00,27.0,9.0,-100.00,WSW,246,5.0,19.0,46,-99.99,,,-99.99,,2013-02-04 15:43:00,
2013-02-04 10:53:00,27.0,9.0,-100.00,WSW,246,5.0,19.0,46,-99.99,,,-99.99,,2013-02-04 15:53:00,
2013-02-04 11:00:00,28.0,9.0,-100.00,SW,231,5.0,18.0,45,-99.99,,,-99.99,,2013-02-04 16:00:00,
2013-02-04 11:23:00,28.0,9.0,-100.00,SW,231,5.0,18.0,45,-99.99,,,-99.99,,2013-02-04 16:23:00,
2013-02-04 11:33:00,28.0,9.0,-100.00,SW,231,5.0,18.0,45,-99.99,,,-99.99,,2013-02-04 16:33:00,
2013-02-04 11:43:00,28.0,9.0,-100.00,SW,231,5.0,18.0,45,-99.99,,,-99.99,,2013-02-04 16:43:00,
2013-02-04 11:52:00,28.0,9.0,-100.00,SW,231,5.0,18.0,45,-99.99,,,-99.99,,2013-02-04 16:52:00,
2013-02-04 12:00:00,30.0,10.0,-100.00,WSW,246,9.0,17.0,42,-99.99,,,-99.99,,2013-02-04 17:00:00,
2013-02-04 12:21:00,30.0,10.0,-100.00,WSW,246,9.0,17.0,42,-99.99,,,-99.99,,2013-02-04 17:21:00,
2013-02-04 12:32:00,30.0,10.0,-100.00,WSW,246,9.0,17.0,42,-99.99,,,-99.99,,2013-02-04 17:32:00,
2013-02-04 12:42:00,30.0,10.0,-100.00,WSW,246,9.0,17.0,42,-99.99,,,-99.99,,2013-02-04 17:42:00,
2013-02-04 12:52:00,30.0,10.0,-100.00,WSW,246,9.0,17.0,42,-99.99,,,-99.99,,2013-02-04 17:52:00,
2013-02-04 13:00:00,29.0,7.0,-100.00,WSW,252,11.0,20.0,41,-99.99,,,-99.99,,2013-02-04 18:00:00,
2013-02-04 13:22:00,29.0,7.0,-100.00,WSW,252,11.0,20.0,41,-99.99,,,-99.99,,2013-02-04 18:22:00,
2013-02-04 13:33:00,29.0,7.0,-100.00,WSW,252,11.0,20.0,41,-99.99,,,-99.99,,2013-02-04 18:33:00,
2013-02-04 13:42:00,29.0,7.0,-100.00,WSW,252,11.0,20.0,41,-99.99,,,-99.99,,2013-02-04 18:42:00,
2013-02-04 13:52:00,29.0,7.0,-100.00,WSW,252,11.0,20.0,41,-99.99,,,-99.99,,2013-02-04 18:52:00,
2013-02-04 14:00:00,29.0,9.0,-100.00,WSW,254,3.0,24.0,44,-99.99,,,-99.99,,2013-02-04 19:00:00,
2013-02-04 14:22:00,29.0,9.0,-100.00,WSW,254,3.0,24.0,44,-99.99,,,-99.99,,2013-02-04 19:22:00,
2013-02-04 14:32:00,29.0,9.0,-100.00,WSW,254,3.0,24.0,44,-99.99,,,-99.99,,2013-02-04 19:32:00,
2013-02-04 14:42:00,29.0,9.0,-100.00,WSW,254,3.0,24.0,44,-99.99,,,-99.99,,2013-02-04 19:42:00,
2013-02-04 14:52:00,29.0,9.0,-100.00,WSW,254,3.0,24.0,44,-99.99,,,-99.99,,2013-02-04 19:52:00,
2013-02-04 15:00:00,29.0,8.0,-100.00,WSW,249,4.0,19.0,41,-99.99,,,-99.99,,2013-02-04 20:00:00,
2013-02-04 15:22:00,29.0,8.0,-100.00,WSW,249,4.0,19.0,41,-99.99,,,-99.99,,2013-02-04 20:22:00,
2013-02-04 15:32:00,29.0,8.0,-100.00,WSW,249,4.0,19.0,41,-99.99,,,-99.99,,2013-02-04 20:32:00,
2013-02-04 15:42:00,29.0,8.0,-100.00,WSW,249,4.0,19.0,41,-99.99,,,-99.99,,2013-02-04 20:42:00,
2013-02-04 15:52:00,29.0,8.0,-100.00,WSW,249,4.0,19.0,41,-99.99,,,-99.99,,2013-02-04 20:52:00,
2013-02-04 16:00:00,28.0,8.0,-100.00,NNW,340,5.0,18.0,43,-99.99,,,-99.99,,2013-02-04 21:00:00,
2013-02-04 16:23:00,28.0,8.0,-100.00,NNW,340,5.0,18.0,43,-99.99,,,-99.99,,2013-02-04 21:23:00,
2013-02-04 16:32:00,28.0,8.0,-100.00,NNW,340,5.0,18.0,43,-99.99,,,-99.99,,2013-02-04 21:32:00,
2013-02-04 16:43:00,28.0,8.0,-100.00,NNW,340,5.0,18.0,43,-99.99,,,-99.99,,2013-02-04 21:43:00,
2013-02-04 16:52:00,28.0,8.0,-100.00,NNW,340,5.0,18.0,43,-99.99,,,-99.99,,2013-02-04 21:52:00,
2013-02-04 17:00:00,28.0,9.0,-100.00,NW,312,4.0,16.0,46,-99.99,,,-99.99,,2013-02-04 22:00:00,
2013-02-04 17:22:00,28.0,9.0,-100.00,NW,312,4.0,16.0,46,-99.99,,,-99.99,,2013-02-04 22:22:00,
2013-02-04 17:33:00,28.0,9.0,-100.00,NW,312,4.0,16.0,46,-99.99,,,-99.99,,2013-02-04 22:33:00,
2013-02-04 17:42:00,28.0,9.0,-100.00,NW,312,4.0,16.0,46,-99.99,,,-99.99,,2013-02-04 22:42:00,
2013-02-04 17:52:00,28.0,9.0,-100.00,NW,312,4.0,16.0,46,-99.99,,,-99.99,,2013-02-04 22:52:00,
2013-02-04 18:00:00,26.0,10.0,-100.00,WNW,282,0.0,15.0,50,-99.99,,,-99.99,,2013-02-04 23:00:00,
2013-02-04 18:22:00,26.0,10.0,-100.00,WNW,282,0.0,15.0,50,-99.99,,,-99.99,,2013-02-04 23:22:00,
2013-02-04 18:32:00,26.0,10.0,-100.00,WNW,282,0.0,15.0,50,-99.99,,,-99.99,,2013-02-04 23:32:00,
2013-02-04 18:42:00,26.0,10.0,-100.00,WNW,282,0.0,15.0,50,-99.99,,,-99.99,,2013-02-04 23:42:00,
2013-02-04 18:52:00,26.0,10.0,-100.00,WNW,282,0.0,15.0,50,-99.99,,,-99.99,,2013-02-04 23:52:00,
2013-02-04 19:00:00,25.0,10.0,-100.00,SSW,206,0.0,6.0,54,-99.99,,,-99.99,,2013-02-05 00:00:00,
2013-02-04 19:22:00,25.0,10.0,-100.00,SSW,206,0.0,6.0,54,-99.99,,,-99.99,,2013-02-05 00:22:00,
2013-02-04 19:32:00,25.0,10.0,-100.00,SSW,206,0.0,6.0,54,-99.99,,,-99.99,,2013-02-05 00:32:00,
2013-02-04 19:42:00,25.0,10.0,-100.00,SSW,206,0.0,6.0,54,-99.99,,,-99.99,,2013-02-05 00:42:00,
2013-02-04 19:52:00,25.0,10.0,-100.00,SSW,206,0.0,6.0,54,-99.99,,,-99.99,,2013-02-05 00:52:00,
2013-02-04 20:00:00,23.0,10.0,-100.00,NW,316,0.0,0.0,58,-99.99,,,-99.99,,2013-02-05 01:00:00,
2013-02-04 20:22:00,23.0,10.0,-100.00,NW,316,0.0,0.0,58,-99.99,,,-99.99,,2013-02-05 01:22:00,
2013-02-04 20:33:00,23.0,10.0,-100.00,NW,316,0.0,0.0,58,-99.99,,,-99.99,,2013-02-05 01:33:00,
2013-02-04 20:42:00,23.0,10.0,-100.00,NW,316,0.0,0.0,58,-99.99,,,-99.99,,2013-02-05 01:42:00,
2013-02-04 20:52:00,23.0,10.0,-100.00,NW,316,0.0,0.0,58,-99.99,,,-99.99,,2013-02-05 01:52:00,
2013-02-04 21:00:00,22.0,11.0,-100.00,West,260,0.0,0.0,64,-99.99,,,-99.99,,2013-02-05 02:00:00,
2013-02-04 21:22:00,22.0,11.0,-100.00,West,260,0.0,0.0,64,-99.99,,,-99.99,,2013-02-05 02:22:00,
2013-02-04 21:32:00,22.0,11.0,-100.00,West,260,0.0,0.0,64,-99.99,,,-99.99,,2013-02-05 02:32:00,
2013-02-04 21:42:00,22.0,11.0,-100.00,West,260,0.0,0.0,64,-99.99,,,-99.99,,2013-02-05 02:42:00,
2013-02-04 21:52:00,22.0,11.0,-100.00,West,260,0.0,0.0,64,-99.99,,,-99.99,,2013-02-05 02:52:00,
2013-02-04 22:00:00,25.0,13.0,-100.00,WSW,249,0.0,0.0,63,-99.99,,,-99.99,,2013-02-05 03:00:00,
2013-02-04 22:22:00,25.0,13.0,-100.00,WSW,249,0.0,0.0,63,-99.99,,,-99.99,,2013-02-05 03:22:00,
2013-02-04 22:32:00,25.0,13.0,-100.00,WSW,249,0.0,0.0,63,-99.99,,,-99.99,,2013-02-05 03:32:00,
2013-02-04 22:42:00,25.0,13.0,-100.00,WSW,249,0.0,0.0,63,-99.99,,,-99.99,,2013-02-05 03:42:00,
2013-02-04 22:52:00,25.0,13.0,-100.00,WSW,249,0.0,0.0,63,-99.99,,,-99.99,,2013-02-05 03:52:00,
2013-02-04 23:00:00,27.0,16.0,-100.00,West,268,0.0,5.0,66,-99.99,,,-99.99,,2013-02-05 04:00:00,
2013-02-04 23:22:00,27.0,16.0,-100.00,West,268,0.0,5.0,66,-99.99,,,-99.99,,2013-02-05 04:22:00,
2013-02-04 23:32:00,27.0,16.0,-100.00,West,268,0.0,5.0,66,-99.99,,,-99.99,,2013-02-05 04:32:00,
2013-02-04 23:42:00,27.0,16.0,-100.00,West,268,0.0,5.0,66,-99.99,,,-99.99,,2013-02-05 04:42:00,
2013-02-04 23:52:00,27.0,16.0,-100.00,West,268,0.0,5.0,66,-99.99,,,-99.99,,2013-02-05 04:52:00,